Time,TemperatureF,DewpointF,PressureIn,WindDirection,WindDirectionDegrees,WindSpeedMPH,WindSpeedGustMPH,Humidity,HourlyPrecipIn,Conditions,Clouds,dailyrainin,SoftwareType,DateUTC
2013-06-13 00:00:00,48.2,44.0,29.96,NW,316,5.0,7.0,86,0.00,,,0.00,weatherlink.com 1.10,2013-06-13 09:00:00,
2013-06-13 00:15:00,46.5,44.0,29.97,West,277,0.0,8.0,91,0.00,,,0.00,weatherlink.com 1.10,2013-06-13 09:15:00,
2013-06-13 00:30:00,46.4,44.0,29.98,NW,319,4.0,5.0,92,0.00,,,0.00,weatherlink.com 1.10,2013-06-13 09:30:00,
2013-06-13 00:45:00,46.0,44.0,29.98,WNW,299,1.0,6.0,93,0.00,,,0.00,weatherlink.com 1.10,2013-06-13 09:45:00,
2013-06-13 01:00:00,45.4,44.0,29.98,NW,313,1.0,6.0,93,0.00,,,0.00,weatherlink.com 1.10,2013-06-13 10:00:00,
2013-06-13 01:15:00,45.2,44.0,29.98,NW,313,1.0,1.0,94,0.00,,,0.00,weatherlink.com 1.10,2013-06-13 10:15:00,
2013-06-13 01:30:00,45.1,44.0,29.98,NW,313,0.0,1.0,94,0.00,,,0.00,weatherlink.com 1.10,2013-06-13 10:30:00,
2013-06-13 01:45:00,44.5,43.0,29.98,NW,313,0.0,2.0,94,0.00,,,0.00,weatherlink.com 1.10,2013-06-13 10:45:00,
2013-06-13 02:00:00,44.2,43.0,29.99,NW,313,0.0,1.0,94,0.00,,,0.00,weatherlink.com 1.10,2013-06-13 11:00:00,
2013-06-13 02:15:00,44.2,43.0,29.99,NW,313,1.0,1.0,94,0.00,,,0.00,weatherlink.com 1.10,2013-06-13 11:15:00,
2013-06-13 02:30:00,43.9,42.0,29.99,NW,313,3.0,4.0,94,0.00,,,0.00,weatherlink.com 1.10,2013-06-13 11:30:00,
2013-06-13 02:46:00,43.5,42.0,29.99,NNE,20,1.0,4.0,94,0.00,,,0.00,weatherlink.com 1.10,2013-06-13 11:46:00,
2013-06-13 03:01:00,43.5,42.0,30.00,NNE,20,0.0,1.0,94,0.00,,,0.00,weatherlink.com 1.10,2013-06-13 12:01:00,
2013-06-13 03:16:00,43.3,42.0,30.00,NNE,20,0.0,1.0,94,0.00,,,0.00,weatherlink.com 1.10,2013-06-13 12:16:00,
2013-06-13 03:31:00,43.0,41.0,30.00,NNE,28,0.0,4.0,94,0.00,,,0.00,weatherlink.com 1.10,2013-06-13 12:31:00,
2013-06-13 03:46:00,42.9,41.0,29.99,ENE,67,1.0,4.0,94,0.00,,,0.00,weatherlink.com 1.10,2013-06-13 12:46:00,
2013-06-13 04:01:00,42.5,41.0,30.00,ENE,67,1.0,4.0,93,0.00,,,0.00,weatherlink.com 1.10,2013-06-13 13:01:00,
2013-06-13 04:16:00,42.2,41.0,29.99,ENE,67,1.0,4.0,94,0.00,,,0.00,weatherlink.com 1.10,2013-06-13 13:16:00,
2013-06-13 04:31:00,42.5,41.0,30.00,ENE,67,1.0,2.0,94,0.00,,,0.00,weatherlink.com 1.10,2013-06-13 13:31:00,
2013-06-13 04:46:00,42.4,41.0,30.00,ENE,67,0.0,1.0,93,0.00,,,0.00,weatherlink.com 1.10,2013-06-13 13:46:00,
2013-06-13 05:01:00,42.2,40.0,30.00,ENE,67,4.0,4.0,93,0.00,,,0.00,weatherlink.com 1.10,2013-06-13 14:01:00,
2013-06-13 05:16:00,42.1,41.0,30.00,ENE,67,0.0,4.0,94,0.00,,,0.00,weatherlink.com 1.10,2013-06-13 14:16:00,
2013-06-13 05:31:00,42.1,41.0,30.00,ENE,67,0.0,2.0,94,0.00,,,0.00,weatherlink.com 1.10,2013-06-13 14:31:00,
2013-06-13 05:46:00,42.9,41.0,30.01,ENE,67,0.0,0.0,94,0.00,,,0.00,weatherlink.com 1.10,2013-06-13 14:46:00,
2013-06-13 06:01:00,43.6,42.0,30.01,ENE,67,0.0,0.0,94,0.00,,,0.00,weatherlink.com 1.10,2013-06-13 15:01:00,
2013-06-13 06:16:00,44.3,42.0,30.01,ENE,67,0.0,0.0,93,0.00,,,0.00,weatherlink.com 1.10,2013-06-13 15:16:00,
2013-06-13 06:31:00,45.1,43.0,30.02,ENE,67,0.0,1.0,93,0.00,,,0.00,weatherlink.com 1.10,2013-06-13 15:31:00,
2013-06-13 06:46:00,45.9,44.0,30.02,ENE,67,0.0,1.0,93,0.00,,,0.00,weatherlink.com 1.10,2013-06-13 15:46:00,
2013-06-13 07:01:00,46.0,44.0,30.02,ENE,66,1.0,4.0,92,0.00,,,0.00,weatherlink.com 1.10,2013-06-13 16:01:00,
2013-06-13 07:16:00,45.9,44.0,30.02,ENE,66,2.0,4.0,92,0.00,,,0.00,weatherlink.com 1.10,2013-06-13 16:16:00,
2013-06-13 07:31:00,45.8,44.0,30.02,NW,311,2.0,3.0,92,0.00,,,0.00,weatherlink.com 1.10,2013-06-13 16:31:00,
2013-06-13 07:46:00,45.4,44.0,30.02,NW,311,2.0,5.0,93,0.00,,,0.00,weatherlink.com 1.10,2013-06-13 16:46:00,
2013-06-13 08:01:00,45.5,44.0,30.02,NW,311,5.0,5.0,93,0.00,,,0.00,weatherlink.com 1.10,2013-06-13 17:01:00,
2013-06-13 08:16:00,45.6,44.0,30.02,WNW,286,5.0,7.0,94,0.00,,,0.00,weatherlink.com 1.10,2013-06-13 17:16:00,
2013-06-13 08:31:00,45.1,44.0,30.02,West,274,7.0,9.0,94,0.00,,,0.00,weatherlink.com 1.10,2013-06-13 17:31:00,
2013-06-13 08:47:00,44.7,43.0,30.03,WSW,237,4.0,9.0,95,0.00,,,0.00,weatherlink.com 1.10,2013-06-13 17:47:00,
2013-06-13 09:02:00,44.4,43.0,30.03,West,279,8.0,9.0,95,0.00,,,0.00,weatherlink.com 1.10,2013-06-13 18:02:00,
2013-06-13 09:17:00,44.2,43.0,30.03,WNW,286,7.0,10.0,95,0.00,,,0.00,weatherlink.com 1.10,2013-06-13 18:17:00,
2013-06-13 09:32:00,44.1,43.0,30.03,WNW,292,7.0,9.0,96,0.00,,,0.00,weatherlink.com 1.10,2013-06-13 18:32:00,
2013-06-13 09:47:00,43.9,43.0,30.04,West,274,5.0,10.0,96,0.00,,,0.00,weatherlink.com 1.10,2013-06-13 18:47:00,
2013-06-13 10:02:00,43.8,43.0,30.04,West,268,8.0,9.0,96,0.00,,,0.00,weatherlink.com 1.10,2013-06-13 19:02:00,
2013-06-13 10:17:00,43.7,43.0,30.04,WNW,292,7.0,8.0,96,0.00,,,0.00,weatherlink.com 1.10,2013-06-13 19:17:00,
2013-06-13 10:32:00,43.6,43.0,30.04,WNW,295,5.0,8.0,96,0.00,,,0.00,weatherlink.com 1.10,2013-06-13 19:32:00,
2013-06-13 10:47:00,44.1,43.0,30.05,NNW,335,3.0,7.0,96,0.00,,,0.00,weatherlink.com 1.10,2013-06-13 19:47:00,
2013-06-13 11:02:00,44.6,44.0,30.05,West,260,6.0,9.0,96,0.00,,,0.00,weatherlink.com 1.10,2013-06-13 20:02:00,
2013-06-13 11:17:00,45.6,45.0,30.04,WNW,285,5.0,8.0,96,0.00,,,0.00,weatherlink.com 1.10,2013-06-13 20:17:00,
2013-06-13 11:32:00,46.5,46.0,30.04,West,260,3.0,6.0,96,0.00,,,0.00,weatherlink.com 1.10,2013-06-13 20:32:00,
2013-06-13 11:47:00,47.5,46.0,30.04,West,281,5.0,9.0,93,0.00,,,0.00,weatherlink.com 1.10,2013-06-13 20:47:00,
2013-06-13 12:02:00,47.7,46.0,30.05,NW,320,1.0,9.0,92,0.00,,,0.00,weatherlink.com 1.10,2013-06-13 21:02:00,
2013-06-13 12:17:00,48.2,46.0,30.05,West,279,3.0,8.0,90,0.00,,,0.00,weatherlink.com 1.10,2013-06-13 21:17:00,
2013-06-13 12:32:00,49.2,46.0,30.05,NW,314,1.0,8.0,88,0.00,,,0.00,weatherlink.com 1.10,2013-06-13 21:32:00,
2013-06-13 12:47:00,50.2,46.0,30.05,West,280,6.0,8.0,86,0.00,,,0.00,weatherlink.com 1.10,2013-06-13 21:47:00,
2013-06-13 13:02:00,50.4,46.0,30.05,West,259,8.0,9.0,85,0.00,,,0.00,weatherlink.com 1.10,2013-06-13 22:02:00,
2013-06-13 13:17:00,49.6,45.0,30.05,West,277,5.0,11.0,85,0.00,,,0.00,weatherlink.com 1.10,2013-06-13 22:17:00,
2013-06-13 13:32:00,49.0,45.0,30.05,WNW,285,7.0,11.0,86,0.00,,,0.00,weatherlink.com 1.10,2013-06-13 22:32:00,
2013-06-13 13:47:00,49.0,45.0,30.05,NW,307,6.0,10.0,87,0.00,,,0.00,weatherlink.com 1.10,2013-06-13 22:47:00,
2013-06-13 14:02:00,49.9,46.0,30.05,NNW,330,5.0,10.0,85,0.00,,,0.00,weatherlink.com 1.10,2013-06-13 23:02:00,
2013-06-13 14:17:00,48.7,45.0,30.05,WSW,257,7.0,12.0,87,0.00,,,0.00,weatherlink.com 1.10,2013-06-13 23:17:00,
2013-06-13 14:32:00,48.8,45.0,30.06,WNW,288,9.0,11.0,88,0.00,,,0.00,weatherlink.com 1.10,2013-06-13 23:32:00,
2013-06-13 14:47:00,47.4,45.0,30.06,WNW,288,7.0,11.0,91,0.00,,,0.00,weatherlink.com 1.10,2013-06-13 23:47:00,
2013-06-13 15:03:00,47.4,45.0,30.06,West,279,7.0,10.0,92,0.00,,,0.00,weatherlink.com 1.10,2013-06-14 00:03:00,
2013-06-13 15:18:00,47.9,46.0,30.06,WNW,283,7.0,10.0,91,0.00,,,0.00,weatherlink.com 1.10,2013-06-14 00:18:00,
2013-06-13 15:33:00,48.2,46.0,30.07,West,273,6.0,10.0,91,0.00,,,0.00,weatherlink.com 1.10,2013-06-14 00:33:00,
2013-06-13 15:48:00,48.1,46.0,30.07,WNW,288,6.0,10.0,92,0.00,,,0.00,weatherlink.com 1.10,2013-06-14 00:48:00,
2013-06-13 16:03:00,48.9,47.0,30.07,WNW,284,6.0,9.0,92,0.00,,,0.00,weatherlink.com 1.10,2013-06-14 01:03:00,
2013-06-13 16:18:00,49.4,46.0,30.07,West,269,6.0,10.0,89,0.00,,,0.00,weatherlink.com 1.10,2013-06-14 01:18:00,
2013-06-13 16:33:00,49.2,46.0,30.07,WNW,285,6.0,10.0,89,0.00,,,0.00,weatherlink.com 1.10,2013-06-14 01:33:00,
2013-06-13 16:48:00,49.2,46.0,30.07,West,277,6.0,9.0,89,0.00,,,0.00,weatherlink.com 1.10,2013-06-14 01:48:00,
2013-06-13 17:03:00,51.8,47.0,30.08,SSE,159,7.0,11.0,84,0.00,,,0.00,weatherlink.com 1.10,2013-06-14 02:03:00,
2013-06-13 17:18:00,59.0,50.0,30.08,ENE,74,9.0,22.0,71,0.00,,,0.00,weatherlink.com 1.10,2013-06-14 02:18:00,
2013-06-13 17:33:00,58.3,49.0,30.09,East,90,8.0,24.0,70,0.00,,,0.00,weatherlink.com 1.10,2013-06-14 02:33:00,
2013-06-13 17:48:00,58.1,49.0,30.10,ESE,114,6.0,21.0,71,0.00,,,0.00,weatherlink.com 1.10,2013-06-14 02:48:00,
2013-06-13 18:03:00,57.9,49.0,30.10,SE,125,3.0,22.0,71,0.00,,,0.00,weatherlink.com 1.10,2013-06-14 03:03:00,
2013-06-13 18:18:00,58.1,48.0,30.11,SE,133,16.0,21.0,70,0.00,,,0.00,weatherlink.com 1.10,2013-06-14 03:18:00,
2013-06-13 18:33:00,58.2,48.0,30.10,SE,140,13.0,21.0,70,0.00,,,0.00,weatherlink.com 1.10,2013-06-14 03:33:00,
2013-06-13 18:48:00,58.6,48.0,30.11,East,96,11.0,19.0,69,0.00,,,0.00,weatherlink.com 1.10,2013-06-14 03:48:00,
2013-06-13 19:03:00,58.9,48.0,30.11,East,96,11.0,21.0,68,0.00,,,0.00,weatherlink.com 1.10,2013-06-14 04:03:00,
2013-06-13 19:18:00,59.1,48.0,30.11,ENE,68,5.0,15.0,67,0.00,,,0.00,weatherlink.com 1.10,2013-06-14 04:18:00,
2013-06-13 19:33:00,59.5,48.0,30.11,East,96,13.0,16.0,66,0.00,,,0.00,weatherlink.com 1.10,2013-06-14 04:33:00,
2013-06-13 19:48:00,59.8,48.0,30.11,East,81,5.0,15.0,66,0.00,,,0.00,weatherlink.com 1.10,2013-06-14 04:48:00,
2013-06-13 20:03:00,59.5,48.0,30.11,SE,132,11.0,19.0,65,0.00,,,0.00,weatherlink.com 1.10,2013-06-14 05:03:00,
2013-06-13 20:18:00,59.0,47.0,30.11,East,88,8.0,13.0,65,0.00,,,0.00,weatherlink.com 1.10,2013-06-14 05:18:00,
2013-06-13 20:33:00,59.5,47.0,30.12,ESE,108,5.0,19.0,64,0.00,,,0.00,weatherlink.com 1.10,2013-06-14 05:33:00,
2013-06-13 20:48:00,59.4,47.0,30.11,SE,135,8.0,18.0,64,0.00,,,0.00,weatherlink.com 1.10,2013-06-14 05:48:00,
2013-06-13 21:03:00,58.7,47.0,30.11,East,90,4.0,12.0,65,0.00,,,0.00,weatherlink.com 1.10,2013-06-14 06:03:00,
2013-06-13 21:18:00,58.3,46.0,30.12,SE,130,0.0,10.0,65,0.00,,,0.00,weatherlink.com 1.10,2013-06-14 06:18:00,
2013-06-13 21:33:00,56.8,47.0,30.13,NW,316,6.0,7.0,70,0.00,,,0.00,weatherlink.com 1.10,2013-06-14 06:33:00,
2013-06-13 21:49:00,55.0,47.0,30.13,NW,323,7.0,9.0,74,0.00,,,0.00,weatherlink.com 1.10,2013-06-14 06:49:00,
2013-06-13 22:04:00,51.0,45.0,30.14,NNW,345,7.0,11.0,81,0.00,,,0.00,weatherlink.com 1.10,2013-06-14 07:04:00,
2013-06-13 22:19:00,48.8,45.0,30.15,West,281,5.0,8.0,86,0.00,,,0.00,weatherlink.com 1.10,2013-06-14 07:19:00,
2013-06-13 22:34:00,47.8,45.0,30.16,West,278,4.0,10.0,88,0.00,,,0.00,weatherlink.com 1.10,2013-06-14 07:34:00,
2013-06-13 22:49:00,47.2,45.0,30.16,WNW,300,4.0,8.0,90,0.00,,,0.00,weatherlink.com 1.10,2013-06-14 07:49:00,
2013-06-13 23:04:00,46.8,44.0,30.17,West,263,5.0,6.0,91,0.00,,,0.00,weatherlink.com 1.10,2013-06-14 08:04:00,
2013-06-13 23:19:00,46.7,44.0,30.17,WNW,282,2.0,6.0,91,0.00,,,0.00,weatherlink.com 1.10,2013-06-14 08:19:00,
2013-06-13 23:34:00,46.6,44.0,30.17,NNW,333,2.0,5.0,91,0.00,,,0.00,weatherlink.com 1.10,2013-06-14 08:34:00,
2013-06-13 23:49:00,46.5,44.0,30.18,NNE,30,1.0,6.0,91,0.00,,,0.00,weatherlink.com 1.10,2013-06-14 08:49:00,